CW9353 Weather Reports


Display with metric or nautical units.
time (UTC)temp
F
wind
direction
speed
MPH
gust
MPH
rain 1hr
in
rain 24hr
in
rain mn
in
humidity
%
barometer
mb
20260504184509 53 64 0.0 0.0 0.00 0.00 0.00 43 1011.1
20260504183009 53 67 0.0 0.0 0.00 0.00 0.00 44 1011.2
20260504181511 53 65 0.0 0.0 0.00 0.00 0.00 42 1011.1
20260504180006 54 67 0.0 0.0 0.00 0.00 0.00 44 1011.1
20260504174506 52 65 0.0 0.0 0.00 0.00 0.00 43 1011.1
20260504173003 53 27 0.0 0.0 0.00 0.00 0.00 44 1011.4
20260504171503 52 57 0.0 0.0 0.00 0.00 0.00 46 1011.4
20260504081505 45 169 0.0 0.0 0.00 0.00 0.00 61 1005.9
20260504044539 55 196 0.0 0.0 0.00 0.00 0.00 41 1005.6
20260504043043 54 198 0.0 0.0 0.00 0.00 0.00 44 1005.6
20260504041536 54 198 0.0 0.0 0.00 0.00 0.00 45 1005.4
20260504040036 54 208 0.0 0.0 0.00 0.00 0.00 44 1005.2
20260504034539 56 209 0.0 0.0 0.00 0.00 0.00 43 1005.4
20260504033039 56 212 0.0 0.0 0.00 0.00 0.00 45 1005.3
20260504031534 59 212 0.0 0.0 0.00 0.00 0.00 39 1004.8
20260504030033 63 211 0.0 0.0 0.00 0.00 0.00 35 1004.6
20260504024533 66 212 0.0 0.0 0.00 0.00 0.00 30 1004.6
20260504023032 66 212 0.0 0.0 0.00 0.00 0.00 30 1004.4
20260504021535 67 212 0.0 0.0 0.00 0.00 0.00 30 1004.4
20260504020037 69 212 0.0 0.0 0.00 0.00 0.00 28 1004.4
20260504014537 69 212 0.0 0.0 0.00 0.00 0.00 27 1004.3
20260504013031 70 212 0.0 0.0 0.00 0.00 0.00 27 1004.5
20260504011529 71 211 0.0 0.0 0.00 0.00 0.00 27 1004.5
20260504010026 71 212 0.0 0.0 0.00 0.00 0.00 25 1004.6
20260504004525 72 223 0.0 0.0 0.00 0.00 0.00 26 1004.8
20260504003024 72 240 0.0 0.0 0.00 0.00 0.00 25 1005.1
20260504001524 72 209 0.0 0.0 0.00 0.00 0.00 25 1004.9
20260504000020 72 221 0.0 0.0 0.00 0.00 0.00 25 1005.5
20260503234521 73 232 0.0 0.0 0.00 0.00 0.00 24 1005.5
20260503233018 73 242 0.0 0.0 0.00 0.00 0.00 23 1005.5
20260503231521 73 234 0.0 0.0 0.00 0.00 0.00 23 1005.9
20260503230017 73 225 0.0 0.0 0.00 0.00 0.00 22 1006.1
20260503224514 73 219 0.0 0.0 0.00 0.00 0.00 22 1006.1
20260503223013 73 208 0.0 0.0 0.00 0.00 0.00 22 1006.2
20260503221512 73 227 0.0 0.0 0.00 0.00 0.00 22 1006.5
20260503220009 73 203 0.0 0.0 0.00 0.00 0.00 23 1006.6
20260503214525 73 242 0.0 0.0 0.00 0.00 0.00 22 1006.8
20260503213005 72 221 0.0 0.0 0.00 0.00 0.00 23 1007.1
20260503211501 73 227 0.0 0.0 0.00 0.00 0.00 24 1007.6
20260503210100 73 242 0.0 0.0 0.00 0.00 0.00 25 1007.7
20260503204559 72 211 0.0 0.0 0.00 0.00 0.00 25 1007.9
20260503203056 72 227 0.0 0.0 0.00 0.00 0.00 24 1008.1
20260503201554 71 222 0.0 0.0 0.00 0.00 0.00 25 1008.2
20260503200101 71 254 0.0 0.0 0.00 0.00 0.00 25 1008.4
20260503194601 71 213 0.0 0.0 0.00 0.00 0.00 25 1008.4
20260503193058 70 209 0.0 0.0 0.00 0.00 0.00 26 1008.7
20260503191549 70 220 0.0 0.0 0.00 0.00 0.00 26 1009.1
20260503190048 71 215 0.0 0.0 0.00 0.00 0.00 28 1009.3